カタログに戻る

STARLINK-35744

運用中通信VLEO
NORAD 66581·PAYLOAD·🇺🇸 United States

打ち上げ Nov 21, 2025 から Cape Canaveral Space Force Station

Loading…

次のパス (今後24時間)

TLE

最新Source: CelesTrak SupGP

元期: Sep 14, 2026, 22:50 UTC

1 66581C 25268AA  26257.95187500 -.00014200  00000+0 -51431-3 0  2578
2 66581  43.0036 358.0216 0001630 269.2123 215.2821 15.27586417    12

AllMySatでSTARLINK-35744をリアルタイム追跡

Download on the App Store